Regional Weather Roundup
Issued by NWS Sioux Falls, SD

Home | Current Version | Previous Version | Text Only | Print | Product List | Glossary Off
Versions: 1 2 3 4 5 6 7 8 9 10 11 12 13 14 15 16 17 18 19 20 21 22 23 24 25 26 27 28 29 30 31 32 33 34 35 36 37 38 39 40 41 42 43 44 45 46 47 48 49 50

000
ASUS43 KFSD 051610
RWRFSD

WEATHER ROUNDUP FOR SE SOUTH DAKOTA/SW MINNESOTA/NW IOWA
NATIONAL WEATHER SERVICE SIOUX FALLS SD
1100 AM CDT SUN JUL 05 2015

NOTE: "FAIR" INDICATES FEW OR NO CLOUDS BELOW 12,000 FEET WITH NO
SIGNIFICANT WEATHER AND OR OBSTRUCTIONS TO VISIBILITY.


SDZ038>040-050-052>070-051700-
SOUTHEAST SOUTH DAKOTA

CITY           SKY/WX    TMP DP  RH WIND       PRES   REMARKS
BROOKINGS      SUNNY     79  66  65 S15G29    29.81F
CHAMBERLAIN    SUNNY     79  70  74 SE16G22   29.76F
HURON          MOSUNNY   81  69  67 S18G30    29.75S
MADISON        FAIR      77  68  73 S23G30    29.81F
MITCHELL       SUNNY     83  68  60 S21G32    29.77F
SIOUX FALLS    MOSUNNY   76  68  76 S18G25    29.82F
WINNER         FAIR      86  66  51 S17       29.76F
YANKTON        MOSUNNY   82  64  54 S17G24    29.80F
$$

MNZ071-072-080-081-089-090-097-098-051700-
SOUTHWEST MINNESOTA

CITY           SKY/WX    TMP DP  RH WIND       PRES   REMARKS
FAIRMONT       CLOUDY    73  63  68 S15G23    29.88F
JACKSON        CLOUDY    73  64  73 S18G25    29.86F
LUVERNE        MOSUNNY   75  66  73 S15G21    29.85F
MARSHALL       MOSUNNY   82  64  54 SW15      29.79F
MONTEVIDEO     MOSUNNY   79  66  65 S13G21    29.81R
PIPESTONE      SUNNY     75  64  69 S17       29.82F
REDWOOD FALLS  MOSUNNY   79  65  62 S14G23    29.82F
TRACY          PTSUNNY   81  68  65 S13       29.82S
WINDOM         CLOUDY    75  64  69 S10G22    29.84R
WORTHINGTON    CLOUDY    72  63  73 S24G33    29.82F
$$

IAZ001>003-012>014-020>022-031-032-NEZ013-014-SDZ071-051700-
NORTHWEST IOWA

CITY           SKY/WX    TMP DP  RH WIND       PRES   REMARKS
CHEROKEE       CLOUDY    74  68  82 S15       29.90F
DENISON        CLOUDY    73  68  83 SW9       29.95F
ESTHERVILLE    CLOUDY    73  65  75 S18G25    29.87F
LE MARS        PTSUNNY   75  70  83 VRB7      29.88F
ORANGE CITY    MOSUNNY   73  66  78 S17       29.88F
SHELDON        CLOUDY    75  75 100 S14G23    29.86F
SIOUX CITY     CLOUDY    73  66  78 E6        29.85F
SPENCER        CLOUDY    73  64  73 S15       29.89F
STORM LAKE     CLOUDY    73  68  83 S18       29.93F
$$

ABBREVIATIONS USED IN REMARKS
   TC - TEMPERATURE IN CELSIUS
  WCI - WIND CHILL INDEX
   HX - HEAT INDEX
  VSB - VISIBILITY



USA.gov is the U.S. government's official web portal to all federal, state and local government web resources and services.